Time,TemperatureF,DewpointF,PressureIn,WindDirection,WindDirectionDegrees,WindSpeedMPH,WindSpeedGustMPH,Humidity,HourlyPrecipIn,Conditions,Clouds,dailyrainin,SoftwareType,DateUTC
2013-01-30 00:03:00,52.9,52.3,28.63,North,-999,-999.0,-999.0,98,0.00,,,0.00,meteohub,2013-01-30 06:03:00,
2013-01-30 00:08:00,52.9,52.3,28.63,North,-999,-999.0,-999.0,98,0.00,,,0.00,meteohub,2013-01-30 06:08:00,
2013-01-30 00:13:00,52.7,52.2,28.60,North,-999,-999.0,-999.0,98,0.00,,,0.00,meteohub,2013-01-30 06:13:00,
2013-01-30 00:18:00,52.7,52.2,28.60,North,-999,-999.0,-999.0,98,0.00,,,0.00,meteohub,2013-01-30 06:18:00,
2013-01-30 00:23:00,52.5,52.0,28.60,North,-999,-999.0,-999.0,98,0.00,,,0.00,meteohub,2013-01-30 06:23:00,
2013-01-30 00:28:00,52.5,52.0,28.60,North,-999,-999.0,-999.0,98,0.00,,,0.00,meteohub,2013-01-30 06:28:00,
2013-01-30 00:33:00,52.3,51.8,28.60,North,-999,-999.0,-999.0,98,0.00,,,0.00,meteohub,2013-01-30 06:33:00,
2013-01-30 00:38:00,52.3,51.8,28.60,North,-999,-999.0,-999.0,98,0.00,,,0.00,meteohub,2013-01-30 06:38:00,
2013-01-30 00:43:00,52.3,51.8,28.60,North,-999,-999.0,-999.0,98,0.00,,,0.00,meteohub,2013-01-30 06:43:00,
2013-01-30 00:48:00,52.2,51.6,28.60,North,-999,-999.0,-999.0,98,0.00,,,0.00,meteohub,2013-01-30 06:48:00,
2013-01-30 00:53:00,52.2,51.6,28.60,North,-999,-999.0,-999.0,98,0.00,,,0.00,meteohub,2013-01-30 06:53:00,
2013-01-30 00:58:00,52.0,51.4,28.60,North,-999,-999.0,-999.0,98,0.00,,,0.00,meteohub,2013-01-30 06:58:00,
2013-01-30 01:04:00,52.0,51.4,28.60,North,-999,-999.0,-999.0,98,0.00,,,0.00,meteohub,2013-01-30 07:04:00,
2013-01-30 01:09:00,52.0,51.4,28.60,North,-999,-999.0,-999.0,98,0.00,,,0.00,meteohub,2013-01-30 07:09:00,
2013-01-30 01:13:00,52.0,51.4,28.60,North,-999,-999.0,-999.0,98,0.00,,,0.00,meteohub,2013-01-30 07:13:00,
2013-01-30 01:18:00,51.8,51.3,28.60,North,-999,-999.0,-999.0,98,0.00,,,0.00,meteohub,2013-01-30 07:18:00,
2013-01-30 01:24:00,51.8,51.3,28.60,North,-999,-999.0,-999.0,98,0.00,,,0.00,meteohub,2013-01-30 07:24:00,
2013-01-30 01:29:00,51.8,51.3,28.57,North,-999,-999.0,-999.0,98,0.00,,,0.00,meteohub,2013-01-30 07:29:00,
2013-01-30 01:34:00,51.6,51.1,28.57,North,-999,-999.0,-999.0,98,0.00,,,0.00,meteohub,2013-01-30 07:34:00,
2013-01-30 01:39:00,51.6,51.1,28.57,North,-999,-999.0,-999.0,98,0.00,,,0.00,meteohub,2013-01-30 07:39:00,
2013-01-30 01:44:00,51.4,50.9,28.57,North,-999,-999.0,-999.0,98,0.00,,,0.00,meteohub,2013-01-30 07:44:00,
2013-01-30 01:49:00,51.4,50.9,28.57,North,-999,-999.0,-999.0,98,0.00,,,0.00,meteohub,2013-01-30 07:49:00,
2013-01-30 01:54:00,51.4,50.9,28.57,North,-999,-999.0,-999.0,98,0.00,,,0.00,meteohub,2013-01-30 07:54:00,
2013-01-30 01:59:00,51.4,50.9,28.60,North,-999,-999.0,-999.0,98,0.00,,,0.00,meteohub,2013-01-30 07:59:00,
2013-01-30 02:04:00,51.3,50.7,28.60,North,-999,-999.0,-999.0,98,0.00,,,0.00,meteohub,2013-01-30 08:04:00,
2013-01-30 02:09:00,51.1,50.5,28.60,North,-999,-999.0,-999.0,98,0.00,,,0.00,meteohub,2013-01-30 08:09:00,
2013-01-30 02:14:00,50.9,50.4,28.60,North,-999,-999.0,-999.0,98,0.00,,,0.00,meteohub,2013-01-30 08:14:00,
2013-01-30 02:19:00,50.5,50.0,28.60,North,-999,-999.0,-999.0,98,0.00,,,0.00,meteohub,2013-01-30 08:19:00,
2013-01-30 02:24:00,50.4,49.8,28.60,North,-999,-999.0,-999.0,98,0.00,,,0.00,meteohub,2013-01-30 08:24:00,
2013-01-30 02:29:00,50.4,49.8,28.60,North,-999,-999.0,-999.0,98,0.00,,,0.00,meteohub,2013-01-30 08:29:00,
2013-01-30 02:34:00,50.4,49.8,28.60,North,-999,-999.0,-999.0,98,0.00,,,0.00,meteohub,2013-01-30 08:34:00,
2013-01-30 02:39:00,50.4,49.8,28.60,North,-999,-999.0,-999.0,98,0.00,,,0.00,meteohub,2013-01-30 08:39:00,
2013-01-30 02:44:00,50.5,50.0,28.60,North,-999,-999.0,-999.0,98,0.00,,,0.00,meteohub,2013-01-30 08:44:00,
2013-01-30 02:49:00,50.5,50.0,28.60,North,-999,-999.0,-999.0,98,0.00,,,0.00,meteohub,2013-01-30 08:49:00,
2013-01-30 02:54:00,50.5,50.0,28.60,North,-999,-999.0,-999.0,98,0.00,,,0.00,meteohub,2013-01-30 08:54:00,
2013-01-30 02:59:00,50.5,50.0,28.60,North,-999,-999.0,-999.0,98,0.00,,,0.00,meteohub,2013-01-30 08:59:00,
2013-01-30 03:04:00,50.5,50.0,28.60,North,-999,-999.0,-999.0,98,0.00,,,0.00,meteohub,2013-01-30 09:04:00,
2013-01-30 03:09:00,50.5,50.0,28.60,North,-999,-999.0,-999.0,98,0.00,,,0.00,meteohub,2013-01-30 09:09:00,
2013-01-30 03:14:00,48.2,47.7,28.63,North,-999,-999.0,-999.0,98,0.00,,,0.00,meteohub,2013-01-30 09:14:00,
2013-01-30 03:19:00,44.2,43.7,28.63,North,-999,-999.0,-999.0,98,0.00,,,0.00,meteohub,2013-01-30 09:19:00,
2013-01-30 03:24:00,43.3,41.2,28.63,North,-999,-999.0,-999.0,92,0.00,,,0.00,meteohub,2013-01-30 09:24:00,
2013-01-30 03:29:00,42.3,40.1,28.60,North,-999,-999.0,-999.0,92,0.00,,,0.00,meteohub,2013-01-30 09:29:00,
2013-01-30 03:34:00,41.2,39.4,28.60,North,-999,-999.0,-999.0,93,0.00,,,0.00,meteohub,2013-01-30 09:34:00,
2013-01-30 03:39:00,40.6,39.0,28.60,North,-999,-999.0,-999.0,94,0.00,,,0.00,meteohub,2013-01-30 09:39:00,
2013-01-30 03:44:00,39.9,38.7,28.60,North,-999,-999.0,-999.0,95,0.00,,,0.00,meteohub,2013-01-30 09:44:00,
2013-01-30 03:49:00,39.6,38.5,28.60,North,-999,-999.0,-999.0,96,0.00,,,0.00,meteohub,2013-01-30 09:49:00,
2013-01-30 03:54:00,39.2,38.5,28.60,North,-999,-999.0,-999.0,97,0.00,,,0.00,meteohub,2013-01-30 09:54:00,
2013-01-30 03:59:00,39.0,38.5,28.57,North,-999,-999.0,-999.0,98,0.00,,,0.00,meteohub,2013-01-30 09:59:00,
2013-01-30 04:04:00,38.7,38.1,28.57,North,-999,-999.0,-999.0,98,0.00,,,0.00,meteohub,2013-01-30 10:04:00,
2013-01-30 04:09:00,38.8,38.3,28.57,North,-999,-999.0,-999.0,98,0.00,,,0.00,meteohub,2013-01-30 10:09:00,
2013-01-30 04:14:00,38.8,38.3,28.54,North,-999,-999.0,-999.0,98,0.00,,,0.00,meteohub,2013-01-30 10:14:00,
2013-01-30 04:19:00,38.8,38.3,28.54,North,-999,-999.0,-999.0,98,0.00,,,0.00,meteohub,2013-01-30 10:19:00,
2013-01-30 04:24:00,38.8,38.3,28.54,North,-999,-999.0,-999.0,98,0.00,,,0.00,meteohub,2013-01-30 10:24:00,
2013-01-30 04:29:00,39.0,38.5,28.54,North,-999,-999.0,-999.0,98,0.00,,,0.00,meteohub,2013-01-30 10:29:00,
2013-01-30 04:34:00,39.0,38.5,28.54,North,-999,-999.0,-999.0,98,0.00,,,0.00,meteohub,2013-01-30 10:34:00,
2013-01-30 04:39:00,39.2,38.7,28.54,North,-999,-999.0,-999.0,98,0.00,,,0.00,meteohub,2013-01-30 10:39:00,
2013-01-30 04:44:00,39.2,38.7,28.54,North,-999,-999.0,-999.0,98,0.00,,,0.00,meteohub,2013-01-30 10:44:00,
2013-01-30 04:49:00,39.2,38.7,28.54,North,-999,-999.0,-999.0,98,0.00,,,0.00,meteohub,2013-01-30 10:49:00,
2013-01-30 04:54:00,39.0,38.5,28.54,North,-999,-999.0,-999.0,98,0.00,,,0.00,meteohub,2013-01-30 10:54:00,
2013-01-30 04:59:00,39.0,38.5,28.60,North,-999,-999.0,-999.0,98,0.00,,,0.00,meteohub,2013-01-30 10:59:00,
2013-01-30 05:04:00,38.8,38.3,28.60,North,-999,-999.0,-999.0,98,0.00,,,0.00,meteohub,2013-01-30 11:04:00,
2013-01-30 05:09:00,38.5,37.9,28.60,North,-999,-999.0,-999.0,98,0.00,,,0.00,meteohub,2013-01-30 11:09:00,
2013-01-30 05:14:00,38.3,37.8,28.60,North,-999,-999.0,-999.0,98,0.00,,,0.00,meteohub,2013-01-30 11:14:00,
2013-01-30 05:19:00,38.1,37.6,28.60,North,-999,-999.0,-999.0,98,0.00,,,0.00,meteohub,2013-01-30 11:19:00,
2013-01-30 05:24:00,38.1,37.6,28.60,North,-999,-999.0,-999.0,98,0.00,,,0.00,meteohub,2013-01-30 11:24:00,
2013-01-30 05:29:00,38.1,37.6,28.60,North,-999,-999.0,-999.0,98,0.00,,,0.00,meteohub,2013-01-30 11:29:00,
2013-01-30 05:34:00,38.1,37.6,28.60,North,-999,-999.0,-999.0,98,0.00,,,0.00,meteohub,2013-01-30 11:34:00,
2013-01-30 05:39:00,38.1,37.6,28.60,North,-999,-999.0,-999.0,98,0.00,,,0.00,meteohub,2013-01-30 11:39:00,
2013-01-30 05:45:00,38.3,37.8,28.57,North,-999,-999.0,-999.0,98,0.00,,,0.00,meteohub,2013-01-30 11:45:00,
2013-01-30 05:50:00,38.3,37.8,28.57,North,-999,-999.0,-999.0,98,0.00,,,0.00,meteohub,2013-01-30 11:50:00,
2013-01-30 05:54:00,38.5,37.9,28.57,North,-999,-999.0,-999.0,98,0.00,,,0.00,meteohub,2013-01-30 11:54:00,
2013-01-30 05:59:00,38.5,37.9,28.54,North,-999,-999.0,-999.0,98,0.00,,,0.00,meteohub,2013-01-30 11:59:00,
2013-01-30 06:04:00,38.5,37.9,28.54,North,-999,-999.0,-999.0,98,0.00,,,0.00,meteohub,2013-01-30 12:04:00,
2013-01-30 06:09:00,38.7,38.1,28.54,North,-999,-999.0,-999.0,98,0.00,,,0.00,meteohub,2013-01-30 12:09:00,
2013-01-30 06:15:00,38.7,38.1,28.54,North,-999,-999.0,-999.0,98,0.00,,,0.00,meteohub,2013-01-30 12:15:00,
2013-01-30 06:20:00,38.7,38.1,28.54,North,-999,-999.0,-999.0,98,0.00,,,0.00,meteohub,2013-01-30 12:20:00,
2013-01-30 06:25:00,38.7,38.1,28.54,North,-999,-999.0,-999.0,98,0.00,,,0.00,meteohub,2013-01-30 12:25:00,
2013-01-30 06:30:00,38.7,38.1,28.54,North,-999,-999.0,-999.0,98,0.00,,,0.00,meteohub,2013-01-30 12:30:00,
2013-01-30 06:35:00,38.7,38.1,28.54,North,-999,-999.0,-999.0,98,0.00,,,0.00,meteohub,2013-01-30 12:35:00,
2013-01-30 06:40:00,38.7,38.1,28.54,North,-999,-999.0,-999.0,98,0.00,,,0.00,meteohub,2013-01-30 12:40:00,
2013-01-30 06:45:00,38.7,38.1,28.54,North,-999,-999.0,-999.0,98,0.00,,,0.00,meteohub,2013-01-30 12:45:00,
2013-01-30 06:50:00,38.5,37.9,28.54,North,-999,-999.0,-999.0,98,0.00,,,0.00,meteohub,2013-01-30 12:50:00,
2013-01-30 06:55:00,38.5,37.9,28.54,North,-999,-999.0,-999.0,98,0.00,,,0.00,meteohub,2013-01-30 12:55:00,
2013-01-30 07:00:00,38.5,37.9,28.54,North,-999,-999.0,-999.0,98,0.00,,,0.00,meteohub,2013-01-30 13:00:00,
2013-01-30 07:05:00,38.3,37.8,28.54,North,-999,-999.0,-999.0,98,0.00,,,0.00,meteohub,2013-01-30 13:05:00,
2013-01-30 07:10:00,38.1,37.6,28.54,North,-999,-999.0,-999.0,98,0.00,,,0.00,meteohub,2013-01-30 13:10:00,
2013-01-30 07:15:00,38.1,37.6,28.57,North,-999,-999.0,-999.0,98,0.00,,,0.00,meteohub,2013-01-30 13:15:00,
2013-01-30 07:20:00,38.1,37.6,28.57,North,-999,-999.0,-999.0,98,0.00,,,0.00,meteohub,2013-01-30 13:20:00,
2013-01-30 07:25:00,38.1,37.6,28.57,North,-999,-999.0,-999.0,98,0.00,,,0.00,meteohub,2013-01-30 13:25:00,
2013-01-30 07:30:00,38.3,37.8,28.57,North,-999,-999.0,-999.0,98,0.00,,,0.00,meteohub,2013-01-30 13:30:00,
2013-01-30 07:35:00,38.3,37.8,28.57,North,-999,-999.0,-999.0,98,0.00,,,0.00,meteohub,2013-01-30 13:35:00,
2013-01-30 07:40:00,38.5,37.9,28.57,North,-999,-999.0,-999.0,98,0.00,,,0.00,meteohub,2013-01-30 13:40:00,
2013-01-30 07:45:00,38.5,37.9,28.57,North,-999,-999.0,-999.0,98,0.00,,,0.00,meteohub,2013-01-30 13:45:00,
2013-01-30 07:50:00,38.5,37.9,28.57,North,-999,-999.0,-999.0,98,0.00,,,0.00,meteohub,2013-01-30 13:50:00,
2013-01-30 07:55:00,38.5,37.9,28.57,North,-999,-999.0,-999.0,98,0.00,,,0.00,meteohub,2013-01-30 13:55:00,
2013-01-30 08:00:00,38.5,37.9,28.54,North,-999,-999.0,-999.0,98,0.00,,,0.00,meteohub,2013-01-30 14:00:00,
2013-01-30 08:05:00,38.3,37.8,28.54,North,-999,-999.0,-999.0,98,0.00,,,0.00,meteohub,2013-01-30 14:05:00,
2013-01-30 08:10:00,38.5,37.9,28.54,North,-999,-999.0,-999.0,98,0.00,,,0.00,meteohub,2013-01-30 14:10:00,
2013-01-30 08:15:00,38.5,37.9,28.54,North,-999,-999.0,-999.0,98,0.00,,,0.00,meteohub,2013-01-30 14:15:00,
2013-01-30 08:20:00,38.5,37.9,28.54,North,-999,-999.0,-999.0,98,0.00,,,0.00,meteohub,2013-01-30 14:20:00,
2013-01-30 08:25:00,38.7,38.1,28.54,North,-999,-999.0,-999.0,98,0.00,,,0.00,meteohub,2013-01-30 14:25:00,
2013-01-30 08:30:00,38.7,38.1,28.51,North,-999,-999.0,-999.0,98,0.00,,,0.00,meteohub,2013-01-30 14:30:00,
2013-01-30 08:35:00,38.8,38.3,28.51,North,-999,-999.0,-999.0,98,0.00,,,0.00,meteohub,2013-01-30 14:35:00,
2013-01-30 08:40:00,38.8,38.3,28.51,North,-999,-999.0,-999.0,98,0.00,,,0.00,meteohub,2013-01-30 14:40:00,
2013-01-30 08:45:00,39.0,38.5,28.54,North,-999,-999.0,-999.0,98,0.00,,,0.00,meteohub,2013-01-30 14:45:00,
2013-01-30 08:50:00,39.0,38.5,28.54,North,-999,-999.0,-999.0,98,0.00,,,0.00,meteohub,2013-01-30 14:50:00,
2013-01-30 08:55:00,39.0,38.5,28.54,North,-999,-999.0,-999.0,98,0.00,,,0.00,meteohub,2013-01-30 14:55:00,
2013-01-30 09:00:00,39.2,38.7,28.51,North,-999,-999.0,-999.0,98,0.00,,,0.00,meteohub,2013-01-30 15:00:00,
2013-01-30 09:05:00,39.2,38.7,28.51,North,-999,-999.0,-999.0,98,0.00,,,0.00,meteohub,2013-01-30 15:05:00,
2013-01-30 09:10:00,39.4,38.8,28.51,North,-999,-999.0,-999.0,98,0.00,,,0.00,meteohub,2013-01-30 15:10:00,
2013-01-30 09:15:00,39.6,39.0,28.51,North,-999,-999.0,-999.0,98,0.00,,,0.00,meteohub,2013-01-30 15:15:00,
2013-01-30 09:20:00,39.7,39.2,28.51,North,-999,-999.0,-999.0,98,0.00,,,0.00,meteohub,2013-01-30 15:20:00,
2013-01-30 09:25:00,39.9,39.4,28.51,North,-999,-999.0,-999.0,98,0.00,,,0.00,meteohub,2013-01-30 15:25:00,
2013-01-30 09:30:00,40.1,39.6,28.48,North,-999,-999.0,-999.0,98,0.00,,,0.00,meteohub,2013-01-30 15:30:00,
2013-01-30 09:35:00,39.9,39.4,28.48,North,-999,-999.0,-999.0,98,0.00,,,0.00,meteohub,2013-01-30 15:35:00,
2013-01-30 09:40:00,39.9,39.4,28.48,North,-999,-999.0,-999.0,98,0.00,,,0.00,meteohub,2013-01-30 15:40:00,
2013-01-30 09:45:00,39.9,39.4,28.48,North,-999,-999.0,-999.0,98,0.00,,,0.00,meteohub,2013-01-30 15:45:00,
2013-01-30 09:50:00,39.9,39.4,28.48,North,-999,-999.0,-999.0,98,0.00,,,0.00,meteohub,2013-01-30 15:50:00,
2013-01-30 09:55:00,40.1,39.6,28.48,North,-999,-999.0,-999.0,98,0.00,,,0.00,meteohub,2013-01-30 15:55:00,
2013-01-30 10:00:00,40.1,39.6,28.48,North,-999,-999.0,-999.0,98,0.00,,,0.00,meteohub,2013-01-30 16:00:00,
2013-01-30 10:05:00,40.1,39.6,28.48,North,-999,-999.0,-999.0,98,0.00,,,0.00,meteohub,2013-01-30 16:05:00,
2013-01-30 10:10:00,40.3,39.7,28.48,North,-999,-999.0,-999.0,98,0.00,,,0.00,meteohub,2013-01-30 16:10:00,
2013-01-30 10:15:00,40.5,39.9,28.45,North,-999,-999.0,-999.0,98,0.00,,,0.00,meteohub,2013-01-30 16:15:00,
2013-01-30 10:20:00,40.6,40.1,28.45,North,-999,-999.0,-999.0,98,0.00,,,0.00,meteohub,2013-01-30 16:20:00,
2013-01-30 10:26:00,41.0,40.5,28.45,North,-999,-999.0,-999.0,98,0.00,,,0.00,meteohub,2013-01-30 16:26:00,
2013-01-30 10:31:00,41.0,40.5,28.45,North,-999,-999.0,-999.0,98,0.00,,,0.00,meteohub,2013-01-30 16:31:00,
2013-01-30 10:36:00,41.0,40.5,28.45,North,-999,-999.0,-999.0,98,0.00,,,0.00,meteohub,2013-01-30 16:36:00,
2013-01-30 10:41:00,41.0,40.5,28.45,North,-999,-999.0,-999.0,98,0.00,,,0.00,meteohub,2013-01-30 16:41:00,
2013-01-30 10:46:00,41.0,40.5,28.42,North,-999,-999.0,-999.0,98,0.00,,,0.00,meteohub,2013-01-30 16:46:00,
2013-01-30 10:51:00,41.0,40.5,28.42,North,-999,-999.0,-999.0,98,0.00,,,0.00,meteohub,2013-01-30 16:51:00,
2013-01-30 10:56:00,41.0,40.5,28.42,North,-999,-999.0,-999.0,98,0.00,,,0.00,meteohub,2013-01-30 16:56:00,
2013-01-30 11:01:00,41.2,40.6,28.42,North,-999,-999.0,-999.0,98,0.00,,,0.00,meteohub,2013-01-30 17:01:00,
2013-01-30 11:06:00,41.2,40.6,28.42,North,-999,-999.0,-999.0,98,0.00,,,0.00,meteohub,2013-01-30 17:06:00,
2013-01-30 11:11:00,41.5,41.0,28.42,North,-999,-999.0,-999.0,98,0.00,,,0.00,meteohub,2013-01-30 17:11:00,
2013-01-30 11:16:00,41.7,41.2,28.42,North,-999,-999.0,-999.0,98,0.00,,,0.00,meteohub,2013-01-30 17:16:00,
2013-01-30 11:21:00,42.4,41.9,28.42,North,-999,-999.0,-999.0,98,0.00,,,0.00,meteohub,2013-01-30 17:21:00,
2013-01-30 11:26:00,43.0,42.4,28.42,North,-999,-999.0,-999.0,98,0.00,,,0.00,meteohub,2013-01-30 17:26:00,
2013-01-30 11:31:00,43.3,42.8,28.42,North,-999,-999.0,-999.0,98,0.00,,,0.00,meteohub,2013-01-30 17:31:00,
2013-01-30 11:36:00,43.7,43.2,28.42,North,-999,-999.0,-999.0,98,0.00,,,0.00,meteohub,2013-01-30 17:36:00,
2013-01-30 11:41:00,44.2,43.7,28.42,North,-999,-999.0,-999.0,98,0.00,,,0.00,meteohub,2013-01-30 17:41:00,
2013-01-30 11:46:00,44.6,44.1,28.39,North,-999,-999.0,-999.0,98,0.00,,,0.00,meteohub,2013-01-30 17:46:00,
2013-01-30 11:51:00,44.8,44.2,28.39,North,-999,-999.0,-999.0,98,0.00,,,0.00,meteohub,2013-01-30 17:51:00,
2013-01-30 11:56:00,45.0,44.4,28.39,North,-999,-999.0,-999.0,98,0.00,,,0.00,meteohub,2013-01-30 17:56:00,
2013-01-30 12:01:00,45.5,45.0,28.39,North,-999,-999.0,-999.0,98,0.00,,,0.00,meteohub,2013-01-30 18:01:00,
2013-01-30 12:06:00,46.0,45.5,28.39,North,-999,-999.0,-999.0,98,0.00,,,0.00,meteohub,2013-01-30 18:06:00,
2013-01-30 12:11:00,46.8,46.2,28.39,North,-999,-999.0,-999.0,98,0.00,,,0.00,meteohub,2013-01-30 18:11:00,
2013-01-30 12:16:00,47.3,46.8,28.39,North,-999,-999.0,-999.0,98,0.00,,,0.00,meteohub,2013-01-30 18:16:00,
2013-01-30 12:21:00,47.8,47.3,28.39,North,-999,-999.0,-999.0,98,0.00,,,0.00,meteohub,2013-01-30 18:21:00,
2013-01-30 12:26:00,48.7,48.2,28.39,North,-999,-999.0,-999.0,98,0.00,,,0.00,meteohub,2013-01-30 18:26:00,
2013-01-30 12:31:00,48.7,48.2,28.39,North,-999,-999.0,-999.0,98,0.00,,,0.00,meteohub,2013-01-30 18:31:00,
2013-01-30 12:36:00,48.6,48.0,28.39,North,-999,-999.0,-999.0,98,0.00,,,0.00,meteohub,2013-01-30 18:36:00,
2013-01-30 12:41:00,48.7,46.2,28.39,North,-999,-999.0,-999.0,91,0.00,,,0.00,meteohub,2013-01-30 18:41:00,
2013-01-30 12:46:00,48.7,44.1,28.39,North,-999,-999.0,-999.0,84,0.00,,,0.00,meteohub,2013-01-30 18:46:00,
2013-01-30 12:51:00,48.6,43.9,28.39,North,-999,-999.0,-999.0,84,0.00,,,0.00,meteohub,2013-01-30 18:51:00,
2013-01-30 12:56:00,48.4,43.2,28.39,North,-999,-999.0,-999.0,82,0.00,,,0.00,meteohub,2013-01-30 18:56:00,
2013-01-30 13:01:00,48.4,40.8,28.39,North,-999,-999.0,-999.0,75,0.00,,,0.00,meteohub,2013-01-30 19:01:00,
2013-01-30 13:06:00,47.7,39.7,28.39,North,-999,-999.0,-999.0,74,0.00,,,0.00,meteohub,2013-01-30 19:06:00,
2013-01-30 13:11:00,46.9,39.4,28.39,North,-999,-999.0,-999.0,75,0.00,,,0.00,meteohub,2013-01-30 19:11:00,
2013-01-30 13:16:00,45.3,36.1,28.39,North,-999,-999.0,-999.0,70,0.00,,,0.00,meteohub,2013-01-30 19:16:00,
2013-01-30 13:21:00,44.6,36.1,28.39,North,-999,-999.0,-999.0,72,0.00,,,0.00,meteohub,2013-01-30 19:21:00,
2013-01-30 13:26:00,43.7,36.0,28.39,North,-999,-999.0,-999.0,74,0.00,,,0.00,meteohub,2013-01-30 19:26:00,
2013-01-30 13:31:00,43.3,36.7,28.39,North,-999,-999.0,-999.0,77,0.00,,,0.00,meteohub,2013-01-30 19:31:00,
2013-01-30 13:36:00,42.4,36.7,28.39,North,-999,-999.0,-999.0,80,0.00,,,0.00,meteohub,2013-01-30 19:36:00,
2013-01-30 13:41:00,41.5,35.6,28.39,North,-999,-999.0,-999.0,79,0.00,,,0.00,meteohub,2013-01-30 19:41:00,
2013-01-30 13:46:00,41.2,35.4,28.42,North,-999,-999.0,-999.0,80,0.00,,,0.00,meteohub,2013-01-30 19:46:00,
2013-01-30 13:51:00,40.6,34.9,28.42,North,-999,-999.0,-999.0,80,0.00,,,0.00,meteohub,2013-01-30 19:51:00,
2013-01-30 13:56:00,40.3,33.6,28.42,North,-999,-999.0,-999.0,77,0.00,,,0.00,meteohub,2013-01-30 19:56:00,
2013-01-30 14:01:00,40.3,32.7,28.42,North,-999,-999.0,-999.0,74,0.00,,,0.00,meteohub,2013-01-30 20:01:00,
2013-01-30 14:06:00,40.1,32.9,28.42,North,-999,-999.0,-999.0,75,0.00,,,0.00,meteohub,2013-01-30 20:06:00,
2013-01-30 14:11:00,40.3,33.3,28.42,North,-999,-999.0,-999.0,76,0.00,,,0.00,meteohub,2013-01-30 20:11:00,
2013-01-30 14:16:00,40.1,32.9,28.42,North,-999,-999.0,-999.0,75,0.00,,,0.00,meteohub,2013-01-30 20:16:00,
2013-01-30 14:21:00,39.7,32.5,28.42,North,-999,-999.0,-999.0,75,0.00,,,0.00,meteohub,2013-01-30 20:21:00,
2013-01-30 14:26:00,39.6,31.3,28.42,North,-999,-999.0,-999.0,72,0.00,,,0.00,meteohub,2013-01-30 20:26:00,
2013-01-30 14:32:00,39.6,29.1,28.42,North,-999,-999.0,-999.0,66,0.00,,,0.00,meteohub,2013-01-30 20:32:00,
2013-01-30 14:37:00,39.6,27.3,28.42,North,-999,-999.0,-999.0,61,0.00,,,0.00,meteohub,2013-01-30 20:37:00,
2013-01-30 14:42:00,39.7,27.9,28.42,North,-999,-999.0,-999.0,62,0.00,,,0.00,meteohub,2013-01-30 20:42:00,
2013-01-30 14:47:00,39.9,27.7,28.39,North,-999,-999.0,-999.0,61,0.00,,,0.00,meteohub,2013-01-30 20:47:00,
2013-01-30 14:52:00,39.9,27.1,28.39,North,-999,-999.0,-999.0,60,0.00,,,0.00,meteohub,2013-01-30 20:52:00,
2013-01-30 14:57:00,39.7,27.9,28.39,North,-999,-999.0,-999.0,62,0.00,,,0.00,meteohub,2013-01-30 20:57:00,
2013-01-30 15:02:00,39.7,28.6,28.39,North,-999,-999.0,-999.0,64,0.00,,,0.00,meteohub,2013-01-30 21:02:00,
2013-01-30 15:07:00,39.7,28.9,28.39,North,-999,-999.0,-999.0,65,0.00,,,0.00,meteohub,2013-01-30 21:07:00,
2013-01-30 15:12:00,39.7,28.2,28.39,North,-999,-999.0,-999.0,63,0.00,,,0.00,meteohub,2013-01-30 21:12:00,
2013-01-30 15:17:00,39.7,28.6,28.42,North,-999,-999.0,-999.0,64,0.00,,,0.00,meteohub,2013-01-30 21:17:00,
2013-01-30 15:22:00,39.4,29.3,28.42,North,-999,-999.0,-999.0,67,0.00,,,0.00,meteohub,2013-01-30 21:22:00,
2013-01-30 15:27:00,39.2,29.8,28.42,North,-999,-999.0,-999.0,69,0.00,,,0.00,meteohub,2013-01-30 21:27:00,
2013-01-30 15:32:00,39.2,29.8,28.42,North,-999,-999.0,-999.0,69,0.00,,,0.00,meteohub,2013-01-30 21:32:00,
2013-01-30 15:37:00,39.2,30.2,28.42,North,-999,-999.0,-999.0,70,0.00,,,0.00,meteohub,2013-01-30 21:37:00,
2013-01-30 15:42:00,38.8,30.2,28.42,North,-999,-999.0,-999.0,71,0.00,,,0.00,meteohub,2013-01-30 21:42:00,
2013-01-30 15:47:00,38.8,30.6,28.42,North,-999,-999.0,-999.0,72,0.00,,,0.00,meteohub,2013-01-30 21:47:00,
2013-01-30 15:52:00,38.7,30.4,28.42,North,-999,-999.0,-999.0,72,0.00,,,0.00,meteohub,2013-01-30 21:52:00,
2013-01-30 15:57:00,38.7,30.7,28.42,North,-999,-999.0,-999.0,73,0.00,,,0.00,meteohub,2013-01-30 21:57:00,
2013-01-30 16:02:00,37.0,28.2,28.42,North,-999,-999.0,-999.0,70,0.00,,,0.00,meteohub,2013-01-30 22:02:00,
2013-01-30 16:07:00,35.8,28.0,28.42,North,-999,-999.0,-999.0,73,0.00,,,0.00,meteohub,2013-01-30 22:07:00,
2013-01-30 16:12:00,34.7,27.7,28.42,North,-999,-999.0,-999.0,75,0.00,,,0.00,meteohub,2013-01-30 22:12:00,
2013-01-30 16:17:00,33.8,28.0,28.45,North,-999,-999.0,-999.0,79,0.00,,,0.00,meteohub,2013-01-30 22:17:00,
2013-01-30 16:21:00,33.6,28.4,28.45,North,-999,-999.0,-999.0,81,0.00,,,0.00,meteohub,2013-01-30 22:21:00,
2013-01-30 16:26:00,32.9,28.6,28.45,North,-999,-999.0,-999.0,84,0.00,,,0.00,meteohub,2013-01-30 22:26:00,
2013-01-30 16:31:00,32.5,28.8,28.48,North,-999,-999.0,-999.0,86,0.00,,,0.00,meteohub,2013-01-30 22:31:00,
2013-01-30 16:36:00,32.2,28.4,28.48,North,-999,-999.0,-999.0,86,0.00,,,0.00,meteohub,2013-01-30 22:36:00,
2013-01-30 16:41:00,31.6,29.8,28.48,North,-999,-999.0,-999.0,93,0.00,,,0.00,meteohub,2013-01-30 22:41:00,
2013-01-30 16:46:00,31.3,28.4,28.48,North,-999,-999.0,-999.0,89,0.00,,,0.00,meteohub,2013-01-30 22:46:00,
2013-01-30 16:51:00,31.1,27.5,28.48,North,-999,-999.0,-999.0,86,0.00,,,0.00,meteohub,2013-01-30 22:51:00,
2013-01-30 16:57:00,30.9,27.3,28.48,North,-999,-999.0,-999.0,86,0.00,,,0.00,meteohub,2013-01-30 22:57:00,
2013-01-30 17:01:00,30.6,26.6,28.51,North,-999,-999.0,-999.0,85,0.00,,,0.00,meteohub,2013-01-30 23:01:00,
2013-01-30 17:06:00,30.6,26.2,28.51,North,-999,-999.0,-999.0,84,0.00,,,0.00,meteohub,2013-01-30 23:06:00,
2013-01-30 17:12:00,30.4,25.5,28.51,North,-999,-999.0,-999.0,82,0.00,,,0.00,meteohub,2013-01-30 23:12:00,
2013-01-30 17:17:00,30.4,25.5,28.51,North,-999,-999.0,-999.0,82,0.00,,,0.00,meteohub,2013-01-30 23:17:00,
2013-01-30 17:22:00,30.4,25.9,28.51,North,-999,-999.0,-999.0,83,0.00,,,0.00,meteohub,2013-01-30 23:22:00,
2013-01-30 17:27:00,30.2,25.2,28.51,North,-999,-999.0,-999.0,81,0.00,,,0.00,meteohub,2013-01-30 23:27:00,
2013-01-30 17:32:00,30.0,24.3,28.54,North,-999,-999.0,-999.0,79,0.00,,,0.00,meteohub,2013-01-30 23:32:00,
2013-01-30 17:37:00,29.8,24.4,28.54,North,-999,-999.0,-999.0,80,0.00,,,0.00,meteohub,2013-01-30 23:37:00,
2013-01-30 17:42:00,29.8,24.8,28.54,North,-999,-999.0,-999.0,81,0.00,,,0.00,meteohub,2013-01-30 23:42:00,
2013-01-30 17:47:00,29.8,25.0,28.54,North,-999,-999.0,-999.0,82,0.00,,,0.00,meteohub,2013-01-30 23:47:00,
2013-01-30 17:52:00,30.0,25.2,28.54,North,-999,-999.0,-999.0,82,0.00,,,0.00,meteohub,2013-01-30 23:52:00,
2013-01-30 17:57:00,30.0,24.3,28.54,North,-999,-999.0,-999.0,79,0.00,,,0.00,meteohub,2013-01-30 23:57:00,
2013-01-30 18:02:00,30.0,22.8,28.54,North,-999,-999.0,-999.0,74,0.00,,,0.00,meteohub,2013-01-31 00:02:00,
2013-01-30 18:07:00,30.2,22.6,28.54,North,-999,-999.0,-999.0,73,0.00,,,0.00,meteohub,2013-01-31 00:07:00,
2013-01-30 18:12:00,30.2,22.6,28.54,North,-999,-999.0,-999.0,73,0.00,,,0.00,meteohub,2013-01-31 00:12:00,
2013-01-30 18:17:00,30.2,23.0,28.57,North,-999,-999.0,-999.0,74,0.00,,,0.00,meteohub,2013-01-31 00:17:00,
2013-01-30 18:22:00,29.8,21.6,28.57,North,-999,-999.0,-999.0,71,0.00,,,0.00,meteohub,2013-01-31 00:22:00,
2013-01-30 18:27:00,29.8,20.7,28.57,North,-999,-999.0,-999.0,68,0.00,,,0.00,meteohub,2013-01-31 00:27:00,
2013-01-30 18:32:00,29.7,20.1,28.60,North,-999,-999.0,-999.0,67,0.00,,,0.00,meteohub,2013-01-31 00:32:00,
2013-01-30 18:37:00,29.7,20.1,28.60,North,-999,-999.0,-999.0,67,0.00,,,0.00,meteohub,2013-01-31 00:37:00,
2013-01-30 18:42:00,29.7,21.4,28.60,North,-999,-999.0,-999.0,71,0.00,,,0.00,meteohub,2013-01-31 00:42:00,
2013-01-30 18:47:00,29.5,21.9,28.60,North,-999,-999.0,-999.0,73,0.00,,,0.00,meteohub,2013-01-31 00:47:00,
2013-01-30 18:52:00,29.5,21.2,28.60,North,-999,-999.0,-999.0,71,0.00,,,0.00,meteohub,2013-01-31 00:52:00,
2013-01-30 18:57:00,29.3,20.8,28.60,North,-999,-999.0,-999.0,70,0.00,,,0.00,meteohub,2013-01-31 00:57:00,
2013-01-30 19:02:00,29.3,21.0,28.60,North,-999,-999.0,-999.0,71,0.00,,,0.00,meteohub,2013-01-31 01:02:00,
2013-01-30 19:07:00,29.1,21.2,28.60,North,-999,-999.0,-999.0,72,0.00,,,0.00,meteohub,2013-01-31 01:07:00,
2013-01-30 19:12:00,29.1,22.5,28.60,North,-999,-999.0,-999.0,76,0.00,,,0.00,meteohub,2013-01-31 01:12:00,
2013-01-30 19:17:00,28.9,21.7,28.60,North,-999,-999.0,-999.0,74,0.00,,,0.00,meteohub,2013-01-31 01:17:00,
2013-01-30 19:22:00,28.9,21.0,28.60,North,-999,-999.0,-999.0,72,0.00,,,0.00,meteohub,2013-01-31 01:22:00,
2013-01-30 19:27:00,28.9,19.4,28.60,North,-999,-999.0,-999.0,67,0.00,,,0.00,meteohub,2013-01-31 01:27:00,
2013-01-30 19:32:00,28.9,18.0,28.63,North,-999,-999.0,-999.0,63,0.00,,,0.00,meteohub,2013-01-31 01:32:00,
2013-01-30 19:37:00,28.9,17.2,28.63,North,-999,-999.0,-999.0,61,0.00,,,0.00,meteohub,2013-01-31 01:37:00,
2013-01-30 19:42:00,29.1,17.8,28.63,North,-999,-999.0,-999.0,62,0.00,,,0.00,meteohub,2013-01-31 01:42:00,
2013-01-30 19:47:00,29.1,18.5,28.63,North,-999,-999.0,-999.0,64,0.00,,,0.00,meteohub,2013-01-31 01:47:00,
2013-01-30 19:52:00,29.1,17.8,28.63,North,-999,-999.0,-999.0,62,0.00,,,0.00,meteohub,2013-01-31 01:52:00,
2013-01-30 19:57:00,29.1,17.8,28.63,North,-999,-999.0,-999.0,62,0.00,,,0.00,meteohub,2013-01-31 01:57:00,
2013-01-30 20:02:00,29.1,17.8,28.63,North,-999,-999.0,-999.0,62,0.00,,,0.00,meteohub,2013-01-31 02:02:00,
2013-01-30 20:07:00,29.1,18.5,28.63,North,-999,-999.0,-999.0,64,0.00,,,0.00,meteohub,2013-01-31 02:07:00,
2013-01-30 20:12:00,28.9,18.7,28.63,North,-999,-999.0,-999.0,65,0.00,,,0.00,meteohub,2013-01-31 02:12:00,
2013-01-30 20:17:00,28.6,18.3,28.63,North,-999,-999.0,-999.0,65,0.00,,,0.00,meteohub,2013-01-31 02:17:00,
2013-01-30 20:22:00,28.4,18.9,28.63,North,-999,-999.0,-999.0,67,0.00,,,0.00,meteohub,2013-01-31 02:22:00,
2013-01-30 20:27:00,28.2,18.0,28.63,North,-999,-999.0,-999.0,65,0.00,,,0.00,meteohub,2013-01-31 02:27:00,
2013-01-30 20:32:00,28.0,17.4,28.63,North,-999,-999.0,-999.0,64,0.00,,,0.00,meteohub,2013-01-31 02:32:00,
2013-01-30 20:37:00,27.9,15.8,28.63,North,-999,-999.0,-999.0,60,0.00,,,0.00,meteohub,2013-01-31 02:37:00,
2013-01-30 20:42:00,27.7,15.6,28.63,North,-999,-999.0,-999.0,60,0.00,,,0.00,meteohub,2013-01-31 02:42:00,
2013-01-30 20:47:00,27.5,15.4,28.66,North,-999,-999.0,-999.0,60,0.00,,,0.00,meteohub,2013-01-31 02:47:00,
2013-01-30 20:52:00,27.5,16.2,28.66,North,-999,-999.0,-999.0,62,0.00,,,0.00,meteohub,2013-01-31 02:52:00,
2013-01-30 20:57:00,27.5,15.8,28.66,North,-999,-999.0,-999.0,61,0.00,,,0.00,meteohub,2013-01-31 02:57:00,
2013-01-30 21:02:00,27.5,16.2,28.66,North,-999,-999.0,-999.0,62,0.00,,,0.00,meteohub,2013-01-31 03:02:00,
2013-01-30 21:07:00,27.3,16.7,28.66,North,-999,-999.0,-999.0,64,0.00,,,0.00,meteohub,2013-01-31 03:07:00,
2013-01-30 21:12:00,27.3,18.1,28.66,North,-999,-999.0,-999.0,68,0.00,,,0.00,meteohub,2013-01-31 03:12:00,
2013-01-30 21:17:00,27.1,18.7,28.66,North,-999,-999.0,-999.0,70,0.00,,,0.00,meteohub,2013-01-31 03:17:00,
2013-01-30 21:22:00,27.0,18.9,28.66,North,-999,-999.0,-999.0,71,0.00,,,0.00,meteohub,2013-01-31 03:22:00,
2013-01-30 21:27:00,26.4,16.3,28.66,North,-999,-999.0,-999.0,65,0.00,,,0.00,meteohub,2013-01-31 03:27:00,
2013-01-30 21:32:00,26.2,16.2,28.69,North,-999,-999.0,-999.0,65,0.00,,,0.00,meteohub,2013-01-31 03:32:00,
2013-01-30 21:37:00,25.9,16.2,28.69,North,-999,-999.0,-999.0,66,0.00,,,0.00,meteohub,2013-01-31 03:37:00,
2013-01-30 21:42:00,25.7,16.7,28.69,North,-999,-999.0,-999.0,68,0.00,,,0.00,meteohub,2013-01-31 03:42:00,
2013-01-30 21:47:00,25.3,15.3,28.69,North,-999,-999.0,-999.0,65,0.00,,,0.00,meteohub,2013-01-31 03:47:00,
2013-01-30 21:52:00,25.3,14.2,28.69,North,-999,-999.0,-999.0,62,0.00,,,0.00,meteohub,2013-01-31 03:52:00,
2013-01-30 21:57:00,25.3,13.5,28.69,North,-999,-999.0,-999.0,60,0.00,,,0.00,meteohub,2013-01-31 03:57:00,
2013-01-30 22:02:00,25.2,11.7,28.71,North,-999,-999.0,-999.0,56,0.00,,,0.00,meteohub,2013-01-31 04:02:00,
2013-01-30 22:07:00,25.2,11.3,28.71,North,-999,-999.0,-999.0,55,0.00,,,0.00,meteohub,2013-01-31 04:07:00,
2013-01-30 22:12:00,25.0,11.1,28.71,North,-999,-999.0,-999.0,55,0.00,,,0.00,meteohub,2013-01-31 04:12:00,
2013-01-30 22:17:00,24.8,11.3,28.71,North,-999,-999.0,-999.0,56,0.00,,,0.00,meteohub,2013-01-31 04:17:00,
2013-01-30 22:22:00,24.6,10.4,28.71,North,-999,-999.0,-999.0,54,0.00,,,0.00,meteohub,2013-01-31 04:22:00,
2013-01-30 22:27:00,24.4,9.3,28.71,North,-999,-999.0,-999.0,52,0.00,,,0.00,meteohub,2013-01-31 04:27:00,
2013-01-30 22:32:00,24.4,9.9,28.71,North,-999,-999.0,-999.0,53,0.00,,,0.00,meteohub,2013-01-31 04:32:00,
2013-01-30 22:37:00,24.4,10.2,28.71,North,-999,-999.0,-999.0,54,0.00,,,0.00,meteohub,2013-01-31 04:37:00,
2013-01-30 22:42:00,24.3,10.4,28.71,North,-999,-999.0,-999.0,55,0.00,,,0.00,meteohub,2013-01-31 04:42:00,
2013-01-30 22:47:00,24.1,10.8,28.74,North,-999,-999.0,-999.0,56,0.00,,,0.00,meteohub,2013-01-31 04:47:00,
2013-01-30 22:52:00,23.7,10.4,28.74,North,-999,-999.0,-999.0,56,0.00,,,0.00,meteohub,2013-01-31 04:52:00,
2013-01-30 22:57:00,23.5,10.9,28.74,North,-999,-999.0,-999.0,58,0.00,,,0.00,meteohub,2013-01-31 04:57:00,
2013-01-30 23:01:00,23.5,10.9,28.74,North,-999,-999.0,-999.0,58,0.00,,,0.00,meteohub,2013-01-31 05:01:00,
2013-01-30 23:02:00,23.5,10.9,28.74,North,-999,-999.0,-999.0,58,0.00,,,0.00,meteohub,2013-01-31 05:02:00,
2013-01-30 23:07:00,23.2,9.9,28.74,North,-999,-999.0,-999.0,56,0.00,,,0.00,meteohub,2013-01-31 05:07:00,
2013-01-30 23:12:00,23.2,9.9,28.77,North,-999,-999.0,-999.0,56,0.00,,,0.00,meteohub,2013-01-31 05:12:00,
2013-01-30 23:17:00,23.2,9.0,28.77,North,-999,-999.0,-999.0,54,0.00,,,0.00,meteohub,2013-01-31 05:17:00,
2013-01-30 23:22:00,23.0,8.4,28.77,North,-999,-999.0,-999.0,53,0.00,,,0.00,meteohub,2013-01-31 05:22:00,
2013-01-30 23:27:00,23.0,8.4,28.77,North,-999,-999.0,-999.0,53,0.00,,,0.00,meteohub,2013-01-31 05:27:00,
2013-01-30 23:32:00,22.8,8.8,28.77,North,-999,-999.0,-999.0,54,0.00,,,0.00,meteohub,2013-01-31 05:32:00,
2013-01-30 23:37:00,22.8,9.5,28.77,North,-999,-999.0,-999.0,56,0.00,,,0.00,meteohub,2013-01-31 05:37:00,
2013-01-30 23:42:00,22.6,9.7,28.77,North,-999,-999.0,-999.0,57,0.00,,,0.00,meteohub,2013-01-31 05:42:00,
2013-01-30 23:47:00,22.6,9.7,28.77,North,-999,-999.0,-999.0,57,0.00,,,0.00,meteohub,2013-01-31 05:47:00,
2013-01-30 23:52:00,22.5,10.4,28.77,North,-999,-999.0,-999.0,59,0.00,,,0.00,meteohub,2013-01-31 05:52:00,
2013-01-30 23:57:00,22.5,9.1,28.77,North,-999,-999.0,-999.0,56,0.00,,,0.00,meteohub,2013-01-31 05:57:00,